| time (UTC) | temp F | wind direction | speed knots | gust knots | rain 1hr in | rain 24hr in | rain mn in | humidity % | barometer mb |
| 20260902001150 | 98 | 135 | 0.9 | 4.3 | 0.00 | 0.00 | 0.00 | 35 | 1009.3 |
| 20260902000921 | 98 | 158 | 0.0 | 3.5 | 0.00 | 0.00 | 0.00 | 37 | 1009.3 |
| 20260902000151 | 98 | 248 | 0.9 | 4.3 | 0.00 | 0.00 | 0.00 | 37 | 1009.3 |
| 20260901235650 | 98 | 270 | 0.9 | 4.3 | 0.00 | 0.00 | 0.00 | 35 | 1009.3 |
| 20260901235420 | 99 | 68 | 0.0 | 5.2 | 0.00 | 0.00 | 0.00 | 35 | 1009.3 |
| 20260901235410 | 99 | 158 | 0.9 | 5.2 | 0.00 | 0.00 | 0.00 | 35 | 1009.7 |
| 20260901234149 | 99 | 225 | 0.9 | 7.0 | 0.00 | 0.00 | 0.00 | 35 | 1009.3 |
| 20260901233648 | 99 | 225 | 1.7 | 7.0 | 0.00 | 0.00 | 0.00 | 35 | 1009.3 |
| 20260901233150 | 100 | 315 | 0.9 | 5.2 | 0.00 | 0.00 | 0.00 | 35 | 1009.3 |
| 20260901232631 | 100 | 225 | 1.7 | 5.2 | 0.00 | 0.00 | 0.00 | 35 | 1009.7 |
| 20260901232131 | 100 | 135 | 0.9 | 5.2 | 0.00 | 0.00 | 0.00 | 37 | 1009.3 |
| 20260901231631 | 100 | 180 | 1.7 | 5.2 | 0.00 | 0.00 | 0.00 | 35 | 1009.7 |
| 20260901231131 | 100 | 113 | 0.9 | 4.3 | 0.00 | 0.00 | 0.00 | 37 | 1009.7 |
| 20260901230629 | 100 | 203 | 0.9 | 6.1 | 0.00 | 0.00 | 0.00 | 35 | 1009.3 |
| 20260901230130 | 100 | 270 | 1.7 | 6.1 | 0.00 | 0.00 | 0.00 | 35 | 1010.0 |
| 20260901225629 | 99 | 180 | 0.9 | 5.2 | 0.00 | 0.00 | 0.00 | 35 | 1009.7 |
| 20260901225129 | 99 | 180 | 0.0 | 2.6 | 0.00 | 0.00 | 0.00 | 37 | 1010.0 |
| 20260901224630 | 99 | 203 | 0.0 | 7.8 | 0.00 | 0.00 | 0.00 | 37 | 1010.0 |
| 20260901224402 | 99 | 158 | 1.7 | 7.8 | 0.00 | 0.00 | 0.00 | 37 | 1009.7 |
| 20260901223630 | 99 | 203 | 1.7 | 6.1 | 0.00 | 0.00 | 0.00 | 37 | 1010.0 |
| 20260901223130 | 99 | 180 | 0.9 | 6.1 | 0.00 | 0.00 | 0.00 | 37 | 1009.7 |
| 20260901222631 | 99 | 270 | 0.0 | 3.5 | 0.00 | 0.00 | 0.00 | 37 | 1010.0 |
| 20260901222129 | 100 | 45 | 0.0 | 3.5 | 0.00 | 0.00 | 0.00 | 37 | 1010.0 |
| 20260901221630 | 100 | 113 | 0.9 | 6.1 | 0.00 | 0.00 | 0.00 | 37 | 1010.5 |
| 20260901221401 | 100 | 180 | 0.9 | 6.1 | 0.00 | 0.00 | 0.00 | 37 | 1010.5 |
| 20260901220629 | 100 | 203 | 0.9 | 5.2 | 0.00 | 0.00 | 0.00 | 37 | 1010.5 |
| 20260901220129 | 100 | 158 | 0.9 | 4.3 | 0.00 | 0.00 | 0.00 | 37 | 1010.5 |
| 20260901215901 | 99 | 315 | 0.9 | 4.3 | 0.00 | 0.00 | 0.00 | 37 | 1010.5 |
| 20260901215130 | 100 | 180 | 0.9 | 6.1 | 0.00 | 0.00 | 0.00 | 37 | 1010.5 |
| 20260901214906 | 100 | 158 | 0.9 | 5.2 | 0.00 | 0.00 | 0.00 | 37 | 1010.5 |
| 20260901214630 | 100 | 158 | 1.7 | 6.1 | 0.00 | 0.00 | 0.00 | 37 | 1010.5 |
| 20260901213631 | 100 | 180 | 0.9 | 4.3 | 0.00 | 0.00 | 0.00 | 37 | 1010.8 |
| 20260901213401 | 99 | 113 | 0.0 | 5.2 | 0.00 | 0.00 | 0.00 | 40 | 1010.8 |
| 20260901212629 | 98 | 293 | 0.9 | 6.1 | 0.00 | 0.00 | 0.00 | 40 | 1011.1 |
| 20260901212129 | 98 | 270 | 0.9 | 6.1 | 0.00 | 0.00 | 0.00 | 40 | 1011.1 |
| 20260901211629 | 97 | 270 | 0.9 | 6.1 | 0.00 | 0.00 | 0.00 | 40 | 1011.5 |
| 20260901211131 | 97 | 180 | 1.7 | 6.1 | 0.00 | 0.00 | 0.00 | 40 | 1011.5 |
| 20260901210631 | 97 | 180 | 0.0 | 2.6 | 0.00 | 0.00 | 0.00 | 40 | 1011.5 |
| 20260901210134 | 97 | 338 | 0.9 | 6.1 | 0.00 | 0.00 | 0.00 | 41 | 1011.8 |
| 20260901210130 | 97 | 225 | 0.0 | 3.5 | 0.00 | 0.00 | 0.00 | 40 | 1011.5 |
| 20260901205130 | 97 | 135 | 1.7 | 6.1 | 0.00 | 0.00 | 0.00 | 41 | 1011.8 |
| 20260901204901 | 96 | 248 | 0.9 | 5.2 | 0.00 | 0.00 | 0.00 | 40 | 1011.8 |
| 20260901204129 | 96 | 203 | 0.9 | 4.3 | 0.00 | 0.00 | 0.00 | 41 | 1011.8 |
| 20260901203629 | 96 | 225 | 0.0 | 3.5 | 0.00 | 0.00 | 0.00 | 41 | 1011.8 |
| 20260901203129 | 96 | 45 | 0.9 | 3.5 | 0.00 | 0.00 | 0.00 | 43 | 1012.1 |
| 20260901202630 | 96 | 158 | 0.0 | 3.5 | 0.00 | 0.00 | 0.00 | 43 | 1011.8 |
| 20260901202130 | 96 | 45 | 0.9 | 3.5 | 0.00 | 0.00 | 0.00 | 45 | 1012.1 |
| 20260901201629 | 95 | 23 | 0.9 | 3.5 | 0.00 | 0.00 | 0.00 | 45 | 1012.1 |
| 20260901201134 | 95 | 203 | 0.9 | 5.2 | 0.00 | 0.00 | 0.00 | 44 | 1012.1 |
| 20260901201130 | 95 | 248 | 0.9 | 3.5 | 0.00 | 0.00 | 0.00 | 44 | 1012.1 |
| 20260901200128 | 94 | 203 | 0.0 | 5.2 | 0.00 | 0.00 | 0.00 | 43 | 1012.5 |
| 20260901195633 | 94 | 203 | 0.0 | 3.5 | 0.00 | 0.00 | 0.00 | 44 | 1012.5 |
| 20260901195629 | 94 | 293 | 0.0 | 3.5 | 0.00 | 0.00 | 0.00 | 45 | 1012.5 |
| 20260901194628 | 94 | 180 | 0.9 | 5.2 | 0.00 | 0.00 | 0.00 | 44 | 1012.5 |
| 20260901194130 | 94 | 180 | 1.7 | 5.2 | 0.00 | 0.00 | 0.00 | 45 | 1012.5 |
| 20260901193629 | 94 | 270 | 0.9 | 3.5 | 0.00 | 0.00 | 0.00 | 46 | 1012.8 |
| 20260901193400 | 94 | 180 | 0.9 | 3.5 | 0.00 | 0.00 | 0.00 | 45 | 1012.5 |
| 20260901192629 | 94 | 180 | 0.9 | 3.5 | 0.00 | 0.00 | 0.00 | 45 | 1012.8 |
| 20260901192130 | 93 | 180 | 0.9 | 3.5 | 0.00 | 0.00 | 0.00 | 48 | 1012.8 |
| 20260901191629 | 93 | 225 | 0.9 | 3.5 | 0.00 | 0.00 | 0.00 | 46 | 1012.8 |
| 20260901191129 | 93 | 203 | 0.9 | 3.5 | 0.00 | 0.00 | 0.00 | 46 | 1012.8 |
| 20260901190629 | 93 | 180 | 0.9 | 3.5 | 0.00 | 0.00 | 0.00 | 46 | 1013.3 |
| 20260901190359 | 93 | 45 | 0.9 | 5.2 | 0.00 | 0.00 | 0.00 | 46 | 1013.3 |
| 20260901185633 | 92 | 203 | 0.0 | 3.5 | 0.00 | 0.00 | 0.00 | 48 | 1013.6 |
| 20260901185629 | 93 | 180 | 0.9 | 4.3 | 0.00 | 0.00 | 0.00 | 48 | 1013.6 |
| 20260901184629 | 92 | 270 | 0.9 | 5.2 | 0.00 | 0.00 | 0.00 | 46 | 1013.6 |
| 20260901184129 | 92 | 203 | 0.9 | 5.2 | 0.00 | 0.00 | 0.00 | 48 | 1013.6 |
| 20260901183629 | 92 | 180 | 1.7 | 5.2 | 0.00 | 0.00 | 0.00 | 49 | 1013.6 |
| 20260901183127 | 92 | 270 | 0.9 | 4.3 | 0.00 | 0.00 | 0.00 | 49 | 1013.9 |
| 20260901182630 | 92 | 270 | 0.9 | 5.2 | 0.00 | 0.00 | 0.00 | 48 | 1013.6 |
| 20260901182130 | 92 | 180 | 0.9 | 5.2 | 0.00 | 0.00 | 0.00 | 48 | 1013.9 |
| 20260901181628 | 91 | 158 | 0.9 | 4.3 | 0.00 | 0.00 | 0.00 | 48 | 1013.9 |
| 20260901181359 | 91 | 203 | 0.9 | 5.2 | 0.00 | 0.00 | 0.00 | 49 | 1013.9 |
| 20260901180613 | 91 | 90 | 0.9 | 5.2 | 0.00 | 0.00 | 0.00 | 49 | 1013.9 |
| 20260901180110 | 91 | 180 | 0.9 | 3.5 | 0.00 | 0.00 | 0.00 | 50 | 1013.9 |
| 20260901175611 | 91 | 225 | 0.9 | 3.5 | 0.00 | 0.00 | 0.00 | 50 | 1014.3 |
| 20260901175109 | 91 | 180 | 0.9 | 3.5 | 0.00 | 0.00 | 0.00 | 50 | 1014.3 |
| 20260901174608 | 91 | 180 | 0.9 | 3.5 | 0.00 | 0.00 | 0.00 | 50 | 1014.3 |
| 20260901174108 | 90 | 180 | 0.9 | 4.3 | 0.00 | 0.00 | 0.00 | 50 | 1014.3 |
| 20260901173609 | 90 | 203 | 0.9 | 4.3 | 0.00 | 0.00 | 0.00 | 51 | 1014.3 |
| 20260901173109 | 90 | 225 | 0.9 | 4.3 | 0.00 | 0.00 | 0.00 | 51 | 1014.3 |
| 20260901172609 | 89 | 270 | 0.9 | 4.3 | 0.00 | 0.00 | 0.00 | 51 | 1014.3 |
| 20260901172109 | 89 | 203 | 0.9 | 6.1 | 0.00 | 0.00 | 0.00 | 50 | 1014.3 |
| 20260901171610 | 89 | 180 | 1.7 | 6.1 | 0.00 | 0.00 | 0.00 | 50 | 1014.3 |
| 20260901171109 | 90 | 203 | 0.9 | 5.2 | 0.00 | 0.00 | 0.00 | 50 | 1014.3 |
| 20260901170610 | 90 | 270 | 0.9 | 4.3 | 0.00 | 0.00 | 0.00 | 51 | 1014.3 |
| 20260901170109 | 90 | 23 | 0.9 | 4.3 | 0.00 | 0.00 | 0.00 | 51 | 1014.3 |
| 20260901165609 | 90 | 180 | 0.9 | 3.5 | 0.00 | 0.00 | 0.00 | 51 | 1014.3 |
| 20260901165109 | 90 | 203 | 0.9 | 4.3 | 0.00 | 0.00 | 0.00 | 51 | 1014.3 |
| 20260901164840 | 90 | 180 | 0.9 | 4.3 | 0.00 | 0.00 | 0.00 | 51 | 1013.9 |
| 20260901164110 | 90 | 45 | 0.9 | 4.3 | 0.00 | 0.00 | 0.00 | 50 | 1013.9 |
| 20260901163610 | 89 | 158 | 0.0 | 4.3 | 0.00 | 0.00 | 0.00 | 54 | 1014.3 |
| 20260901163109 | 88 | 270 | 0.9 | 4.3 | 0.00 | 0.00 | 0.00 | 53 | 1014.3 |
| 20260901162609 | 88 | 203 | 0.9 | 4.3 | 0.00 | 0.00 | 0.00 | 54 | 1013.9 |
| 20260901162341 | 87 | 203 | 0.9 | 4.3 | 0.00 | 0.00 | 0.00 | 56 | 1013.9 |
| 20260901161609 | 86 | 158 | 0.9 | 4.3 | 0.00 | 0.01 | 0.00 | 56 | 1014.3 |
| 20260901161108 | 86 | 225 | 0.9 | 3.5 | 0.00 | 0.01 | 0.00 | 58 | 1013.9 |
| 20260901160603 | 85 | 180 | 0.9 | 3.5 | 0.00 | 0.03 | 0.00 | 58 | 1013.9 |
| 20260901160321 | 85 | 203 | 0.9 | 3.5 | 0.00 | 0.04 | 0.00 | 59 | 1013.9 |
| 20260901155549 | 85 | 180 | 0.9 | 3.5 | 0.00 | 0.04 | 0.00 | 58 | 1013.9 |
| 20260901155051 | 84 | 225 | 0.0 | 3.5 | 0.00 | 0.05 | 0.00 | 59 | 1013.9 |
| 20260901154551 | 84 | 180 | 0.9 | 3.5 | 0.00 | 0.05 | 0.00 | 60 | 1013.6 |
| 20260901154321 | 84 | 203 | 0.0 | 4.3 | 0.00 | 0.06 | 0.00 | 60 | 1013.9 |
| 20260901153552 | 84 | 180 | 0.9 | 4.3 | 0.00 | 0.06 | 0.00 | 59 | 1013.6 |
| 20260901153050 | 83 | 158 | 0.9 | 3.5 | 0.00 | 0.07 | 0.00 | 60 | 1013.9 |
| 20260901152550 | 83 | 338 | 0.0 | 3.5 | 0.00 | 0.08 | 0.00 | 60 | 1013.9 |
| 20260901152049 | 83 | 270 | 0.9 | 3.5 | 0.00 | 0.09 | 0.00 | 61 | 1013.9 |
| 20260901151549 | 83 | 158 | 0.9 | 2.6 | 0.00 | 0.10 | 0.00 | 61 | 1013.9 |
| 20260901151049 | 82 | 158 | 0.0 | 1.7 | 0.00 | 0.10 | 0.00 | 61 | 1013.6 |
| 20260901150827 | 81 | 315 | 0.9 | 3.5 | 0.00 | 0.10 | 0.00 | 63 | 1013.9 |
| 20260901150551 | 82 | 315 | 0.0 | 3.5 | 0.00 | 0.10 | 0.00 | 61 | 1013.9 |
| 20260901145551 | 81 | 68 | 0.0 | 2.6 | 0.00 | 0.10 | 0.00 | 65 | 1013.6 |
| 20260901145050 | 80 | 270 | 0.0 | 1.7 | 0.00 | 0.10 | 0.00 | 65 | 1013.9 |
| 20260901144551 | 80 | 68 | 0.0 | 2.6 | 0.00 | 0.11 | 0.00 | 65 | 1013.6 |
| 20260901144049 | 80 | 270 | 0.0 | 2.6 | 0.00 | 0.11 | 0.00 | 65 | 1013.6 |
| 20260901143549 | 79 | 23 | 0.0 | 2.6 | 0.00 | 0.11 | 0.00 | 66 | 1013.6 |
| 20260901143049 | 79 | 248 | 0.0 | 2.6 | 0.00 | 0.13 | 0.00 | 68 | 1013.6 |
| 20260901142820 | 78 | 23 | 0.0 | 3.5 | 0.00 | 0.13 | 0.00 | 69 | 1013.3 |
| 20260901142050 | 78 | 248 | 0.0 | 3.5 | 0.00 | 0.13 | 0.00 | 70 | 1013.3 |
| 20260901141550 | 78 | 248 | 0.0 | 2.6 | 0.00 | 0.13 | 0.00 | 71 | 1013.6 |
| 20260901141050 | 78 | 68 | 0.0 | 1.7 | 0.00 | 0.13 | 0.00 | 71 | 1013.9 |
| 20260901140551 | 78 | 68 | 0.0 | 0.0 | 0.00 | 0.13 | 0.00 | 71 | 1013.3 |
| 20260901140050 | 78 | 90 | 0.0 | 0.0 | 0.00 | 0.13 | 0.00 | 73 | 1013.3 |
| 20260901135549 | 78 | 45 | 0.0 | 0.0 | 0.00 | 0.13 | 0.00 | 73 | 1013.6 |
| 20260901135049 | 77 | 23 | 0.0 | 0.0 | 0.00 | 0.13 | 0.00 | 73 | 1013.6 |
| 20260901134549 | 77 | 45 | 0.0 | 0.0 | 0.00 | 0.13 | 0.00 | 73 | 1013.3 |
| 20260901134049 | 77 | 0 | 0.0 | 0.0 | 0.00 | 0.13 | 0.00 | 74 | 1013.3 |
| 20260901133549 | 77 | 248 | 0.0 | 0.0 | 0.00 | 0.13 | 0.00 | 73 | 1013.3 |
| 20260901133050 | 77 | 225 | 0.0 | 0.0 | 0.00 | 0.13 | 0.00 | 73 | 1013.3 |
| 20260901132551 | 77 | 248 | 0.0 | 0.0 | 0.00 | 0.13 | 0.00 | 73 | 1013.3 |
| 20260901132050 | 77 | 113 | 0.0 | 0.0 | 0.00 | 0.13 | 0.00 | 73 | 1012.8 |
| 20260901131550 | 77 | 45 | 0.0 | 0.0 | 0.00 | 0.13 | 0.00 | 73 | 1012.5 |
| 20260901131051 | 77 | 225 | 0.0 | 0.0 | 0.00 | 0.13 | 0.00 | 74 | 1012.8 |
| 20260901130549 | 77 | 90 | 0.0 | 0.0 | 0.00 | 0.13 | 0.00 | 73 | 1012.8 |
| 20260901130319 | 77 | 45 | 0.0 | 0.0 | 0.00 | 0.13 | 0.00 | 73 | 1012.8 |
| 20260901125553 | 77 | 68 | 0.0 | 0.0 | 0.00 | 0.13 | 0.00 | 73 | 1012.8 |
| 20260901125549 | 77 | 45 | 0.0 | 0.0 | 0.00 | 0.13 | 0.00 | 74 | 1012.8 |
| 20260901124550 | 77 | 68 | 0.0 | 0.0 | 0.00 | 0.13 | 0.00 | 73 | 1012.8 |
| 20260901124050 | 77 | 68 | 0.0 | 0.0 | 0.00 | 0.13 | 0.00 | 73 | 1012.8 |
| 20260901123550 | 77 | 158 | 0.0 | 0.0 | 0.00 | 0.13 | 0.00 | 74 | 1012.8 |
| 20260901123322 | 77 | 113 | 0.0 | 0.0 | 0.00 | 0.13 | 0.00 | 74 | 1012.8 |
| 20260901122550 | 77 | 113 | 0.0 | 0.0 | 0.00 | 0.13 | 0.00 | 73 | 1012.8 |
| 20260901122049 | 77 | 113 | 0.0 | 0.0 | 0.00 | 0.13 | 0.00 | 74 | 1012.8 |
| 20260901121549 | 77 | 113 | 0.0 | 0.0 | 0.00 | 0.13 | 0.00 | 73 | 1012.5 |
| 20260901121049 | 77 | 158 | 0.0 | 0.0 | 0.00 | 0.13 | 0.00 | 73 | 1012.5 |
| 20260901120549 | 78 | 113 | 0.0 | 0.0 | 0.00 | 0.13 | 0.00 | 71 | 1012.5 |
| 20260901120056 | 78 | 23 | 0.0 | 0.0 | 0.00 | 0.13 | 0.00 | 73 | 1012.1 |
| 20260901120052 | 78 | 135 | 0.0 | 0.0 | 0.00 | 0.13 | 0.00 | 73 | 1012.5 |
| 20260901115322 | 78 | 23 | 0.0 | 0.0 | 0.00 | 0.13 | 0.00 | 71 | 1012.5 |
| 20260901114550 | 78 | 180 | 0.0 | 0.0 | 0.00 | 0.13 | 0.00 | 71 | 1012.5 |
| 20260901114050 | 78 | 158 | 0.0 | 0.0 | 0.00 | 0.13 | 0.00 | 71 | 1012.5 |
| 20260901113549 | 78 | 248 | 0.0 | 0.0 | 0.00 | 0.13 | 0.00 | 71 | 1012.1 |
| 20260901113049 | 78 | 158 | 0.0 | 0.0 | 0.00 | 0.13 | 0.00 | 71 | 1012.1 |
| 20260901112549 | 78 | 158 | 0.0 | 0.0 | 0.00 | 0.13 | 0.00 | 70 | 1012.5 |
| 20260901112049 | 78 | 158 | 0.0 | 0.0 | 0.00 | 0.13 | 0.00 | 70 | 1012.1 |
| 20260901111550 | 78 | 158 | 0.0 | 2.6 | 0.00 | 0.13 | 0.00 | 70 | 1012.1 |
| 20260901111050 | 78 | 23 | 0.0 | 2.6 | 0.00 | 0.13 | 0.00 | 70 | 1012.1 |
| 20260901110551 | 78 | 68 | 0.0 | 0.0 | 0.00 | 0.13 | 0.00 | 70 | 1012.1 |
| 20260901110050 | 78 | 45 | 0.0 | 0.0 | 0.00 | 0.13 | 0.00 | 70 | 1012.1 |
| 20260901105820 | 78 | 68 | 0.0 | 0.0 | 0.00 | 0.13 | 0.00 | 70 | 1012.1 |
| 20260901105049 | 78 | 68 | 0.0 | 0.0 | 0.00 | 0.13 | 0.00 | 70 | 1012.1 |
| 20260901104549 | 78 | 68 | 0.0 | 0.0 | 0.00 | 0.13 | 0.00 | 70 | 1012.1 |
| 20260901104049 | 78 | 45 | 0.0 | 0.0 | 0.00 | 0.13 | 0.00 | 70 | 1012.1 |
| 20260901103549 | 78 | 225 | 0.0 | 0.0 | 0.00 | 0.13 | 0.00 | 70 | 1012.1 |
| 20260901103049 | 78 | 23 | 0.0 | 0.0 | 0.00 | 0.13 | 0.00 | 70 | 1012.5 |
| 20260901102550 | 78 | 45 | 0.0 | 0.0 | 0.00 | 0.13 | 0.00 | 70 | 1012.5 |
| 20260901102050 | 78 | 23 | 0.0 | 0.0 | 0.00 | 0.13 | 0.00 | 70 | 1012.5 |
| 20260901101551 | 78 | 23 | 0.0 | 0.0 | 0.00 | 0.13 | 0.00 | 70 | 1012.5 |
| 20260901101050 | 78 | 23 | 0.0 | 0.0 | 0.00 | 0.13 | 0.00 | 70 | 1012.5 |
| 20260901100550 | 78 | 23 | 0.0 | 0.0 | 0.00 | 0.13 | 0.00 | 70 | 1012.1 |
| 20260901100048 | 78 | 68 | 0.0 | 0.0 | 0.00 | 0.13 | 0.00 | 70 | 1012.1 |
| 20260901095549 | 78 | 270 | 0.0 | 0.0 | 0.00 | 0.13 | 0.00 | 70 | 1012.5 |
| 20260901095049 | 78 | 203 | 0.0 | 0.0 | 0.00 | 0.13 | 0.00 | 70 | 1012.1 |
| 20260901094548 | 78 | 45 | 0.0 | 0.0 | 0.00 | 0.13 | 0.00 | 70 | 1012.5 |
| 20260901094050 | 78 | 113 | 0.0 | 0.0 | 0.00 | 0.13 | 0.00 | 70 | 1012.5 |
| 20260901093822 | 78 | 23 | 0.0 | 0.0 | 0.00 | 0.13 | 0.00 | 69 | 1012.5 |
| 20260901093321 | 78 | 180 | 0.0 | 0.0 | 0.00 | 0.13 | 0.00 | 69 | 1012.1 |
| 20260901092550 | 78 | 23 | 0.0 | 0.0 | 0.00 | 0.13 | 0.00 | 69 | 1012.5 |
| 20260901092051 | 78 | 158 | 0.0 | 0.0 | 0.00 | 0.13 | 0.00 | 69 | 1012.5 |
| 20260901091549 | 79 | 158 | 0.0 | 0.0 | 0.00 | 0.13 | 0.00 | 70 | 1012.5 |
| 20260901091320 | 79 | 158 | 0.0 | 0.0 | 0.00 | 0.13 | 0.00 | 70 | 1012.5 |
| 20260901090549 | 79 | 158 | 0.0 | 0.0 | 0.00 | 0.13 | 0.00 | 69 | 1012.8 |
| 20260901090048 | 79 | 158 | 0.0 | 0.0 | 0.00 | 0.13 | 0.00 | 69 | 1012.5 |
| 20260901085550 | 79 | 158 | 0.0 | 0.0 | 0.00 | 0.13 | 0.00 | 69 | 1012.5 |
| 20260901085051 | 79 | 135 | 0.0 | 0.0 | 0.00 | 0.13 | 0.00 | 69 | 1012.5 |
| 20260901084550 | 79 | 135 | 0.0 | 0.0 | 0.00 | 0.13 | 0.00 | 68 | 1012.5 |
| 20260901084050 | 79 | 158 | 0.0 | 0.0 | 0.00 | 0.13 | 0.00 | 66 | 1012.5 |
| 20260901083550 | 79 | 135 | 0.0 | 0.0 | 0.00 | 0.13 | 0.00 | 66 | 1012.5 |
| 20260901083320 | 79 | 158 | 0.0 | 0.0 | 0.00 | 0.13 | 0.00 | 66 | 1012.5 |
| 20260901082548 | 79 | 180 | 0.0 | 0.0 | 0.00 | 0.13 | 0.00 | 66 | 1012.8 |
| 20260901082049 | 79 | 135 | 0.0 | 0.0 | 0.00 | 0.13 | 0.00 | 68 | 1012.5 |
| 20260901081820 | 79 | 225 | 0.0 | 0.0 | 0.00 | 0.13 | 0.00 | 66 | 1012.5 |
| 20260901081049 | 79 | 203 | 0.0 | 0.0 | 0.00 | 0.13 | 0.00 | 66 | 1012.5 |
| 20260901080550 | 79 | 203 | 0.0 | 0.0 | 0.00 | 0.13 | 0.00 | 66 | 1012.5 |
| 20260901080050 | 79 | 180 | 0.0 | 0.0 | 0.00 | 0.13 | 0.00 | 65 | 1012.5 |
| 20260901075826 | 79 | 180 | 0.0 | 0.9 | 0.00 | 0.13 | 0.00 | 65 | 1012.5 |
| 20260901075050 | 79 | 180 | 0.0 | 0.9 | 0.00 | 0.13 | 0.00 | 65 | 1012.5 |
| 20260901074549 | 80 | 203 | 0.0 | 0.0 | 0.00 | 0.13 | 0.00 | 65 | 1012.1 |
| 20260901074049 | 80 | 203 | 0.0 | 1.7 | 0.00 | 0.13 | 0.00 | 65 | 1012.1 |
| 20260901073549 | 80 | 180 | 0.0 | 2.6 | 0.00 | 0.13 | 0.00 | 65 | 1012.5 |
| 20260901073048 | 80 | 180 | 0.0 | 2.6 | 0.00 | 0.13 | 0.00 | 65 | 1012.1 |
| 20260901072548 | 80 | 293 | 0.0 | 1.7 | 0.00 | 0.13 | 0.00 | 65 | 1012.5 |
| 20260901072049 | 80 | 158 | 0.0 | 1.7 | 0.00 | 0.13 | 0.00 | 65 | 1012.5 |
| 20260901071550 | 80 | 90 | 0.0 | 1.7 | 0.00 | 0.13 | 0.00 | 65 | 1012.5 |
| 20260901071050 | 80 | 270 | 0.0 | 0.0 | 0.00 | 0.13 | 0.00 | 65 | 1012.1 |
| 20260901070550 | 80 | 135 | 0.0 | 0.0 | 0.00 | 0.13 | 0.00 | 65 | 1012.1 |
| 20260901070050 | 80 | 90 | 0.0 | 0.0 | 0.00 | 0.13 | 0.00 | 65 | 1012.1 |
| 20260901065550 | 80 | 315 | 0.0 | 1.7 | 0.00 | 0.13 | 0.13 | 65 | 1012.1 |
| 20260901065320 | 80 | 0 | 0.0 | 1.7 | 0.00 | 0.13 | 0.13 | 65 | 1012.1 |
| 20260901064819 | 80 | 338 | 0.0 | 0.9 | 0.00 | 0.13 | 0.13 | 63 | 1012.1 |
| 20260901064048 | 80 | 23 | 0.0 | 0.9 | 0.00 | 0.13 | 0.13 | 63 | 1011.8 |
| 20260901063821 | 80 | 0 | 0.0 | 0.9 | 0.00 | 0.13 | 0.13 | 63 | 1011.8 |
| 20260901063033 | 81 | 338 | 0.0 | 1.7 | 0.00 | 0.13 | 0.13 | 63 | 1011.8 |
| 20260901062536 | 81 | 338 | 0.0 | 0.9 | 0.00 | 0.13 | 0.13 | 63 | 1012.1 |
| 20260901062531 | 81 | 0 | 0.0 | 0.9 | 0.00 | 0.13 | 0.13 | 63 | 1012.1 |
| 20260901061531 | 81 | 293 | 0.0 | 0.9 | 0.00 | 0.13 | 0.13 | 63 | 1012.1 |
| 20260901061030 | 81 | 23 | 0.0 | 0.0 | 0.00 | 0.13 | 0.13 | 61 | 1011.8 |
| 20260901060529 | 81 | 23 | 0.0 | 0.0 | 0.00 | 0.13 | 0.13 | 61 | 1012.1 |
| 20260901060031 | 81 | 0 | 0.0 | 0.0 | 0.00 | 0.13 | 0.13 | 61 | 1012.1 |
| 20260901055800 | 81 | 293 | 0.0 | 0.9 | 0.00 | 0.13 | 0.13 | 61 | 1012.1 |
| 20260901055031 | 81 | 0 | 0.0 | 0.9 | 0.00 | 0.13 | 0.13 | 60 | 1011.8 |
| 20260901054802 | 81 | 225 | 0.0 | 1.7 | 0.00 | 0.13 | 0.13 | 59 | 1011.8 |
| 20260901054302 | 81 | 315 | 0.0 | 1.7 | 0.00 | 0.13 | 0.13 | 59 | 1011.8 |
| 20260901053531 | 81 | 203 | 0.0 | 1.7 | 0.00 | 0.13 | 0.13 | 58 | 1012.1 |
| 20260901053031 | 81 | 270 | 0.0 | 1.7 | 0.00 | 0.13 | 0.13 | 58 | 1012.1 |
| 20260901052530 | 81 | 225 | 0.0 | 0.0 | 0.00 | 0.13 | 0.13 | 59 | 1012.1 |
| 20260901052030 | 82 | 225 | 0.0 | 0.0 | 0.00 | 0.13 | 0.13 | 59 | 1011.8 |
| 20260901051529 | 82 | 180 | 0.0 | 1.7 | 0.00 | 0.13 | 0.13 | 58 | 1012.1 |
| 20260901051030 | 82 | 270 | 0.0 | 1.7 | 0.00 | 0.14 | 0.13 | 56 | 1012.1 |
| 20260901050530 | 82 | 225 | 0.0 | 0.9 | 0.00 | 0.14 | 0.13 | 58 | 1011.8 |
| 20260901050032 | 82 | 248 | 0.0 | 0.0 | 0.00 | 0.14 | 0.13 | 58 | 1012.1 |
| 20260901045802 | 82 | 225 | 0.0 | 0.0 | 0.00 | 0.14 | 0.13 | 56 | 1011.8 |
| 20260901045031 | 82 | 248 | 0.0 | 0.0 | 0.00 | 0.14 | 0.13 | 56 | 1012.1 |
| 20260901044803 | 82 | 248 | 0.0 | 0.0 | 0.00 | 0.14 | 0.13 | 55 | 1012.1 |
| 20260901044031 | 82 | 248 | 0.0 | 0.0 | 0.00 | 0.14 | 0.13 | 55 | 1012.1 |
| 20260901043529 | 82 | 225 | 0.0 | 0.0 | 0.00 | 0.14 | 0.13 | 55 | 1011.8 |
| 20260901043030 | 82 | 180 | 0.0 | 0.0 | 0.00 | 0.14 | 0.13 | 55 | 1011.8 |
| 20260901042530 | 82 | 158 | 0.0 | 3.5 | 0.00 | 0.14 | 0.13 | 55 | 1012.1 |
| 20260901042030 | 83 | 180 | 0.9 | 3.5 | 0.00 | 0.14 | 0.13 | 55 | 1012.1 |
| 20260901041531 | 83 | 180 | 0.0 | 3.5 | 0.00 | 0.15 | 0.13 | 54 | 1011.8 |
| 20260901041303 | 83 | 180 | 0.0 | 5.2 | 0.00 | 0.16 | 0.13 | 53 | 1011.8 |
| 20260901040531 | 83 | 180 | 0.9 | 5.2 | 0.00 | 0.25 | 0.13 | 53 | 1011.8 |
| 20260901040031 | 83 | 158 | 0.0 | 2.6 | 0.00 | 0.31 | 0.13 | 51 | 1011.8 |
| 20260901035531 | 83 | 45 | 0.0 | 0.9 | 0.00 | 0.31 | 0.13 | 53 | 1011.8 |
| 20260901035030 | 83 | 315 | 0.0 | 0.9 | 0.00 | 0.31 | 0.13 | 51 | 1011.8 |
| 20260901034530 | 83 | 113 | 0.0 | 1.7 | 0.00 | 0.31 | 0.13 | 50 | 1011.8 |
| 20260901034300 | 83 | 135 | 0.0 | 3.5 | 0.00 | 0.31 | 0.13 | 53 | 1011.8 |
| 20260901033530 | 83 | 113 | 0.0 | 3.5 | 0.00 | 0.31 | 0.13 | 53 | 1011.5 |
| 20260901033030 | 83 | 180 | 0.0 | 3.5 | 0.00 | 0.31 | 0.13 | 53 | 1011.8 |
| 20260901032531 | 84 | 90 | 0.9 | 3.5 | 0.00 | 0.31 | 0.13 | 53 | 1011.5 |
| 20260901032031 | 84 | 338 | 0.9 | 4.3 | 0.00 | 0.31 | 0.13 | 53 | 1011.5 |
| 20260901031531 | 84 | 180 | 0.9 | 5.2 | 0.00 | 0.31 | 0.13 | 54 | 1011.1 |
| 20260901031031 | 84 | 68 | 0.9 | 6.1 | 0.00 | 0.31 | 0.13 | 54 | 1011.1 |
| 20260901030530 | 83 | 203 | 0.9 | 6.1 | 0.00 | 0.31 | 0.13 | 53 | 1011.1 |
| 20260901030301 | 83 | 158 | 0.0 | 2.6 | 0.00 | 0.31 | 0.13 | 51 | 1011.1 |
| 20260901025800 | 83 | 180 | 0.0 | 2.6 | 0.00 | 0.31 | 0.13 | 50 | 1011.1 |
| 20260901025030 | 83 | 158 | 0.0 | 2.6 | 0.00 | 0.31 | 0.13 | 51 | 1010.8 |
| 20260901024531 | 83 | 158 | 0.0 | 2.6 | 0.00 | 0.31 | 0.13 | 51 | 1010.8 |
| 20260901024302 | 83 | 180 | 0.0 | 0.0 | 0.00 | 0.31 | 0.13 | 55 | 1010.8 |
| 20260901023531 | 83 | 180 | 0.0 | 0.0 | 0.00 | 0.31 | 0.13 | 54 | 1010.8 |
| 20260901023031 | 83 | 180 | 0.0 | 0.0 | 0.00 | 0.31 | 0.13 | 51 | 1010.5 |
| 20260901022531 | 84 | 180 | 0.0 | 0.0 | 0.00 | 0.31 | 0.13 | 56 | 1010.8 |
| 20260901022031 | 84 | 23 | 0.0 | 0.0 | 0.00 | 0.31 | 0.13 | 56 | 1010.8 |
| 20260901021529 | 84 | 45 | 0.0 | 0.0 | 0.00 | 0.31 | 0.13 | 56 | 1010.8 |
| 20260901021305 | 84 | 45 | 0.0 | 0.0 | 0.00 | 0.31 | 0.13 | 54 | 1010.5 |
| 20260901021030 | 84 | 45 | 0.0 | 0.0 | 0.00 | 0.31 | 0.13 | 55 | 1010.5 |
| 20260901020030 | 85 | 45 | 0.0 | 0.0 | 0.00 | 0.31 | 0.13 | 51 | 1010.0 |
| 20260901015531 | 85 | 45 | 0.0 | 0.0 | 0.00 | 0.31 | 0.13 | 51 | 1010.0 |
| 20260901015031 | 85 | 68 | 0.0 | 0.0 | 0.00 | 0.31 | 0.13 | 55 | 1010.0 |
| 20260901014531 | 85 | 45 | 0.0 | 0.0 | 0.00 | 0.31 | 0.13 | 53 | 1010.0 |
| 20260901014302 | 85 | 45 | 0.0 | 0.0 | 0.00 | 0.31 | 0.13 | 53 | 1010.0 |
| 20260901013531 | 85 | 45 | 0.0 | 0.0 | 0.00 | 0.31 | 0.13 | 51 | 1010.0 |
| 20260901013029 | 85 | 23 | 0.0 | 0.9 | 0.00 | 0.31 | 0.13 | 50 | 1010.5 |
| 20260901012800 | 86 | 45 | 0.0 | 0.9 | 0.00 | 0.31 | 0.13 | 50 | 1010.0 |
| 20260901012300 | 86 | 45 | 0.0 | 0.0 | 0.00 | 0.31 | 0.13 | 51 | 1010.0 |
| 20260901011530 | 86 | 23 | 0.0 | 0.0 | 0.00 | 0.31 | 0.13 | 51 | 1010.5 |
| 20260901011031 | 86 | 23 | 0.0 | 4.3 | 0.00 | 0.31 | 0.13 | 50 | 1010.5 |
| 20260901010531 | 86 | 23 | 0.9 | 4.3 | 0.00 | 0.31 | 0.13 | 50 | 1010.5 |
| 20260901010033 | 86 | 45 | 0.0 | 3.5 | 0.00 | 0.31 | 0.13 | 50 | 1010.0 |
| 20260901005531 | 86 | 68 | 0.9 | 3.5 | 0.00 | 0.31 | 0.13 | 50 | 1010.5 |
| 20260901005032 | 86 | 203 | 0.0 | 2.6 | 0.00 | 0.31 | 0.13 | 48 | 1010.0 |
| 20260901004530 | 87 | 158 | 0.0 | 2.6 | 0.00 | 0.31 | 0.13 | 48 | 1010.5 |
| 20260901004029 | 87 | 225 | 0.0 | 2.6 | 0.00 | 0.31 | 0.13 | 49 | 1010.5 |
| 20260901003530 | 87 | 203 | 0.0 | 2.6 | 0.00 | 0.31 | 0.13 | 49 | 1010.5 |
| 20260901003030 | 87 | 270 | 0.0 | 1.7 | 0.00 | 0.31 | 0.13 | 46 | 1010.5 |
| 20260901002801 | 87 | 248 | 0.0 | 1.7 | 0.00 | 0.31 | 0.13 | 49 | 1010.5 |
| 20260901002030 | 87 | 270 | 0.0 | 1.7 | 0.00 | 0.31 | 0.13 | 49 | 1010.5 |
| 20260901001531 | 87 | 203 | 0.0 | 1.7 | 0.00 | 0.31 | 0.13 | 48 | 1010.5 |